User: anonymous   Login
Location: *
(44.1392°N, 4.8079°E)
Time: 23:15:01
(UTC+00:00)
Language:

Cosmos 2098 Rocket - Orbit

View from above orbital plane
View from above orbital plane
View from above satellite
View from above satellite

Ground track
Ground track

The orbit data is extracted from the following two-line orbital elements,

1 20775U 90078B   21262.59179947  .00001598  00000-0  76144-4 0  9998
2 20775  82.9282 207.4505 0564629 210.2451 146.5016 14.36361176571604
Epoch (UTC): 19 September 2021 14:12:11
Eccentricity: 0.0564629
inclination: 82.9282°
perigee height: 367 km
apogee height: 1174 km
right ascension of ascending node: 207.4505°
argument of perigee: 210.2451°
revolutions per day: 14.36361176
mean anomaly at epoch: 146.5016°
orbit number at epoch: 57160

The dashed part of the orbit path shows where the satellite is in the earth's shadow,  

DLR